Station Historical Data
Daily Summary for April 8, 2017 Units:  English    Metric   Both
« Previous Day
Next Day »
Daily Weekly Monthly Yearly Custom
  High: Low: Average:
Temperature: 48.5 °F 28.9 °F 38.8 °F
Dew Point: 31.5 °F 18.8 °F 26.9 °F
Humidity: 82% 33% 63%
Wind Speed: 16.0mph 0.0mph 4.7mph
Wind Gust: 18.0mph - -
Wind- - West
Pressure: 30.05 in 29.86 in -
Precipitation: 0.00 in    
Historical Graphs
 
 
Tabular Data for April 8, 2017
Time Temperature Dew Point Pressure Wind Wind Speed Wind Gust Humidity Rainfall Rate (Hourly)
00:04 34.1 °F 24.3 °F 29.86 in West 4.0 mph 9.0 mph 67% 0.00 in
00:09 34.0 °F 24.2 °F 29.86 in West 4.0 mph 8.0 mph 67% 0.00 in
00:14 33.9 °F 24.4 °F 29.86 in West 2.0 mph 7.0 mph 68% 0.00 in
00:19 33.9 °F 24.4 °F 29.87 in WNW 5.0 mph 7.0 mph 68% 0.00 in
00:24 33.8 °F 24.4 °F 29.87 in West 4.0 mph 8.0 mph 68% 0.00 in
00:29 33.9 °F 24.1 °F 29.87 in WNW 5.0 mph 6.0 mph 67% 0.00 in
00:34 33.8 °F 24.4 °F 29.87 in West 3.0 mph 8.0 mph 68% 0.00 in
00:39 33.7 °F 24.3 °F 29.87 in West 4.0 mph 7.0 mph 68% 0.00 in
00:49 33.7 °F 24.3 °F 29.87 in West 4.0 mph 6.0 mph 68% 0.00 in
00:54 33.6 °F 24.2 °F 29.87 in West 4.0 mph 8.0 mph 68% 0.00 in
00:59 33.4 °F 24.3 °F 29.87 in West 3.0 mph 8.0 mph 69% 0.00 in
01:04 33.4 °F 24.3 °F 29.87 in West 3.0 mph 7.0 mph 69% 0.00 in
01:09 33.3 °F 24.2 °F 29.87 in West 3.0 mph 6.0 mph 69% 0.00 in
01:14 33.1 °F 24.0 °F 29.88 in West 2.0 mph 6.0 mph 69% 0.00 in
01:19 33.0 °F 24.3 °F 29.88 in West 4.0 mph 6.0 mph 70% 0.00 in
01:24 32.9 °F 24.2 °F 29.87 in West 3.0 mph 6.0 mph 70% 0.00 in
01:29 32.8 °F 24.4 °F 29.87 in West 4.0 mph 7.0 mph 71% 0.00 in
01:34 32.8 °F 24.4 °F 29.88 in West 4.0 mph 7.0 mph 71% 0.00 in
01:39 32.8 °F 24.4 °F 29.88 in West 3.0 mph 7.0 mph 71% 0.00 in
01:44 32.7 °F 24.3 °F 29.87 in WNW 5.0 mph 7.0 mph 71% 0.00 in
01:49 32.7 °F 24.3 °F 29.88 in SW 2.0 mph 8.0 mph 71% 0.00 in
01:54 32.7 °F 24.3 °F 29.88 in West 4.0 mph 8.0 mph 71% 0.00 in
01:59 32.7 °F 24.7 °F 29.88 in WNW 4.0 mph 7.0 mph 72% 0.00 in
02:04 32.7 °F 24.7 °F 29.88 in WNW 3.0 mph 7.0 mph 72% 0.00 in
02:09 32.7 °F 24.7 °F 29.88 in West 5.0 mph 6.0 mph 72% 0.00 in
02:14 32.6 °F 24.6 °F 29.88 in West 4.0 mph 7.0 mph 72% 0.00 in
02:19 32.6 °F 24.6 °F 29.88 in West 5.0 mph 7.0 mph 72% 0.00 in
02:24 32.5 °F 24.8 °F 29.88 in West 4.0 mph 7.0 mph 73% 0.00 in
02:29 32.5 °F 24.8 °F 29.87 in WNW 4.0 mph 7.0 mph 73% 0.00 in
02:34 32.5 °F 24.8 °F 29.88 in WNW 3.0 mph 7.0 mph 73% 0.00 in
02:39 32.4 °F 24.7 °F 29.88 in WNW 4.0 mph 7.0 mph 73% 0.00 in
02:44 32.5 °F 25.1 °F 29.88 in WNW 2.0 mph 6.0 mph 74% 0.00 in
02:49 32.4 °F 24.7 °F 29.88 in WNW 3.0 mph 6.0 mph 73% 0.00 in
02:54 32.3 °F 24.9 °F 29.88 in WNW 3.0 mph 6.0 mph 74% 0.00 in
02:59 32.3 °F 24.9 °F 29.88 in West 4.0 mph 6.0 mph 74% 0.00 in
03:04 32.3 °F 24.9 °F 29.88 in West 4.0 mph 7.0 mph 74% 0.00 in
03:09 32.3 °F 24.9 °F 29.88 in WNW 2.0 mph 7.0 mph 74% 0.00 in
03:14 32.2 °F 24.8 °F 29.88 in West 2.0 mph 6.0 mph 74% 0.00 in
03:19 32.1 °F 25.1 °F 29.88 in WNW 2.0 mph 6.0 mph 75% 0.00 in
03:24 32.0 °F 25.0 °F 29.88 in WNW 3.0 mph 6.0 mph 75% 0.00 in
03:29 32.0 °F 25.0 °F 29.88 in WNW 3.0 mph 6.0 mph 75% 0.00 in
03:34 32.0 °F 25.0 °F 29.88 in WNW 3.0 mph 6.0 mph 75% 0.00 in
03:39 32.2 °F 25.2 °F 29.89 in WNW 3.0 mph 7.0 mph 75% 0.00 in
03:44 32.2 °F 25.2 °F 29.89 in WNW 8.0 mph 8.0 mph 75% 0.00 in
03:49 32.3 °F 25.3 °F 29.89 in WNW 3.0 mph 8.0 mph 75% 0.00 in
03:54 32.2 °F 25.2 °F 29.89 in WNW 3.0 mph 8.0 mph 75% 0.00 in
03:59 32.1 °F 25.1 °F 29.89 in WNW 2.0 mph 5.0 mph 75% 0.00 in
04:04 32.0 °F 25.3 °F 29.89 in WNW 2.0 mph 5.0 mph 76% 0.00 in
04:09 32.0 °F 25.3 °F 29.89 in WNW 2.0 mph 5.0 mph 76% 0.00 in
04:14 32.1 °F 25.4 °F 29.89 in WNW 3.0 mph 5.0 mph 76% 0.00 in
04:19 32.0 °F 25.3 °F 29.90 in WNW 2.0 mph 6.0 mph 76% 0.00 in
04:24 31.9 °F 25.2 °F 29.89 in West 2.0 mph 5.0 mph 76% 0.00 in
04:29 31.9 °F 25.2 °F 29.90 in WNW 3.0 mph 7.0 mph 76% 0.00 in
04:34 31.9 °F 25.2 °F 29.90 in WNW 3.0 mph 7.0 mph 76% 0.00 in
04:39 31.9 °F 25.2 °F 29.90 in WNW 3.0 mph 4.0 mph 76% 0.00 in
04:44 31.7 °F 25.0 °F 29.90 in WNW 3.0 mph 5.0 mph 76% 0.00 in
04:49 31.6 °F 24.9 °F 29.90 in West 4.0 mph 4.0 mph 76% 0.00 in
04:54 31.4 °F 24.7 °F 29.91 in WNW 3.0 mph 5.0 mph 76% 0.00 in
04:59 31.3 °F 24.9 °F 29.91 in West 3.0 mph 5.0 mph 77% 0.00 in
05:04 31.2 °F 24.8 °F 29.91 in West 2.0 mph 5.0 mph 77% 0.00 in
05:09 31.0 °F 24.6 °F 29.91 in West 2.0 mph 4.0 mph 77% 0.00 in
05:14 30.9 °F 24.5 °F 29.92 in West 2.0 mph 4.0 mph 77% 0.00 in
05:19 30.8 °F 24.4 °F 29.92 in West 1.0 mph 3.0 mph 77% 0.00 in
05:24 30.6 °F 24.6 °F 29.92 in West 1.0 mph 4.0 mph 78% 0.00 in
05:29 30.3 °F 24.3 °F 29.92 in West 1.0 mph 4.0 mph 78% 0.00 in
05:34 30.1 °F 24.4 °F 29.92 in West 1.0 mph 3.0 mph 79% 0.00 in
05:39 29.9 °F 24.2 °F 29.92 in West 1.0 mph 3.0 mph 79% 0.00 in
05:44 29.9 °F 24.5 °F 29.93 in West 1.0 mph 5.0 mph 80% 0.00 in
05:49 29.9 °F 24.5 °F 29.93 in West 2.0 mph 4.0 mph 80% 0.00 in
05:54 29.9 °F 24.5 °F 29.93 in Calm   3.0 mph 80% 0.00 in
06:04 29.6 °F 24.5 °F 29.93 in West 1.0 mph 4.0 mph 81% 0.00 in
06:09 29.6 °F 24.5 °F 29.93 in West 1.0 mph 3.0 mph 81% 0.00 in
06:14 29.6 °F 24.5 °F 29.94 in WNW 2.0 mph 3.0 mph 81% 0.00 in
06:19 29.5 °F 24.4 °F 29.94 in West 2.0 mph 4.0 mph 81% 0.00 in
06:24 29.6 °F 24.5 °F 29.94 in West 1.0 mph 3.0 mph 81% 0.00 in
06:29 29.7 °F 24.6 °F 29.95 in West 2.0 mph 5.0 mph 81% 0.00 in
06:34 29.6 °F 24.5 °F 29.95 in West 2.0 mph 5.0 mph 81% 0.00 in
06:39 29.5 °F 24.4 °F 29.95 in West 1.0 mph 4.0 mph 81% 0.00 in
06:44 29.1 °F 24.0 °F 29.96 in West 1.0 mph 3.0 mph 81% 0.00 in
06:49 29.0 °F 24.2 °F 29.96 in West 1.0 mph 3.0 mph 82% 0.00 in
06:54 29.0 °F 24.2 °F 29.96 in Calm     82% 0.00 in
06:59 29.1 °F 24.3 °F 29.96 in Calm     82% 0.00 in
07:04 28.9 °F 24.1 °F 29.96 in Calm     82% 0.00 in
07:09 29.1 °F 24.3 °F 29.96 in Calm     82% 0.00 in
07:14 29.4 °F 24.6 °F 29.96 in West 2.0 mph 5.0 mph 82% 0.00 in
07:19 29.8 °F 25.0 °F 29.97 in West 4.0 mph 4.0 mph 82% 0.00 in
07:24 30.3 °F 25.2 °F 29.97 in WNW 3.0 mph 5.0 mph 81% 0.00 in
07:29 30.7 °F 25.6 °F 29.97 in West 3.0 mph 5.0 mph 81% 0.00 in
07:34 31.0 °F 25.6 °F 29.97 in West 3.0 mph 5.0 mph 80% 0.00 in
07:39 31.4 °F 25.6 °F 29.98 in West 3.0 mph 5.0 mph 79% 0.00 in
07:44 31.7 °F 25.9 °F 29.98 in WNW 2.0 mph 6.0 mph 79% 0.00 in
07:49 32.1 °F 26.3 °F 29.99 in WSW 2.0 mph 8.0 mph 79% 0.00 in
07:54 32.5 °F 26.4 °F 29.99 in West 3.0 mph 6.0 mph 78% 0.00 in
07:59 32.9 °F 26.8 °F 29.99 in West 3.0 mph 7.0 mph 78% 0.00 in
08:04 33.2 °F 26.8 °F 29.99 in WNW 4.0 mph 7.0 mph 77% 0.00 in
08:14 33.9 °F 27.1 °F 29.99 in West 5.0 mph 6.0 mph 76% 0.00 in
08:19 34.3 °F 27.5 °F 30.00 in WNW 4.0 mph 6.0 mph 76% 0.00 in
08:24 34.6 °F 27.5 °F 30.00 in WNW 6.0 mph 8.0 mph 75% 0.00 in
08:29 35.0 °F 27.9 °F 30.00 in WNW 4.0 mph 8.0 mph 75% 0.00 in
08:34 35.6 °F 27.8 °F 30.00 in WNW 3.0 mph 7.0 mph 73% 0.00 in
08:39 36.0 °F 27.8 °F 30.00 in WNW 2.0 mph 8.0 mph 72% 0.00 in
08:44 36.6 °F 28.1 °F 30.00 in NNW 2.0 mph 6.0 mph 71% 0.00 in
08:54 37.4 °F 27.8 °F 30.00 in NW 5.0 mph 7.0 mph 68% 0.00 in
08:59 37.9 °F 27.9 °F 30.00 in NW 3.0 mph 7.0 mph 67% 0.00 in
09:04 38.4 °F 27.7 °F 30.00 in NW 4.0 mph 7.0 mph 65% 0.00 in
09:09 38.5 °F 27.4 °F 30.00 in NW 4.0 mph 7.0 mph 64% 0.00 in
09:14 38.5 °F 27.0 °F 30.00 in NW 6.0 mph 7.0 mph 63% 0.00 in
09:19 38.6 °F 26.3 °F 30.00 in North 5.0 mph 8.0 mph 61% 0.00 in
09:24 38.9 °F 27.0 °F 30.00 in NNW 5.0 mph 7.0 mph 62% 0.00 in
09:29 38.9 °F 26.2 °F 30.00 in NNW 4.0 mph 8.0 mph 60% 0.00 in
09:34 39.2 °F 26.5 °F 30.00 in NW 4.0 mph 9.0 mph 60% 0.00 in
09:39 39.4 °F 26.7 °F 30.00 in NW 4.0 mph 9.0 mph 60% 0.00 in
09:44 39.6 °F 26.0 °F 30.01 in NW 5.0 mph 9.0 mph 58% 0.00 in
09:49 39.6 °F 26.4 °F 30.01 in NW 2.0 mph 10.0 mph 59% 0.00 in
09:54 40.0 °F 26.8 °F 30.01 in WNW 4.0 mph 8.0 mph 59% 0.00 in
09:59 40.5 °F 26.4 °F 30.01 in NW 4.0 mph 8.0 mph 57% 0.00 in
10:04 40.2 °F 26.2 °F 30.01 in WNW 4.0 mph 9.0 mph 57% 0.00 in
10:09 40.4 °F 26.4 °F 30.02 in WNW 5.0 mph 9.0 mph 57% 0.00 in
10:14 40.6 °F 26.5 °F 30.02 in WNW 4.0 mph 9.0 mph 57% 0.02 in
10:19 41.3 °F 25.9 °F 30.02 in WNW 4.0 mph 9.0 mph 54% 0.02 in
10:24 41.0 °F 24.7 °F 30.02 in NNW 4.0 mph 9.0 mph 52% 0.03 in
10:29 41.4 °F 26.0 °F 30.02 in WNW 5.0 mph 10.0 mph 54% 0.03 in
10:34 41.2 °F 25.3 °F 30.02 in NW 4.0 mph 10.0 mph 53% 0.04 in
10:39 41.9 °F 26.4 °F 30.02 in West 5.0 mph 8.0 mph 54% 0.05 in
10:44 42.0 °F 26.1 °F 30.03 in NW 3.0 mph 7.0 mph 53% 0.05 in
10:49 42.5 °F 27.0 °F 30.03 in WNW 6.0 mph 8.0 mph 54% 0.06 in
10:54 42.2 °F 24.4 °F 30.03 in WNW 3.0 mph 10.0 mph 49% 0.07 in
10:59 42.4 °F 26.0 °F 30.03 in WNW 4.0 mph 9.0 mph 52% 0.07 in
11:04 42.7 °F 25.8 °F 30.03 in WNW 5.0 mph 11.0 mph 51% 0.08 in
11:09 42.5 °F 23.7 °F 30.03 in WNW 6.0 mph 12.0 mph 47% 0.08 in
11:14 42.8 °F 22.9 °F 30.03 in WNW 7.0 mph 14.0 mph 45% 0.07 in
11:19 42.9 °F 23.5 °F 30.04 in NW 6.0 mph 14.0 mph 46% 0.07 in
11:24 43.4 °F 24.5 °F 30.03 in West 7.0 mph 10.0 mph 47% 0.07 in
11:29 42.9 °F 23.0 °F 30.04 in NW 4.0 mph 10.0 mph 45% 0.07 in
11:34 43.4 °F 21.8 °F 30.04 in NW 5.0 mph 10.0 mph 42% 0.07 in
11:39 43.7 °F 22.6 °F 30.04 in NW 5.0 mph 10.0 mph 43% 0.06 in
11:44 44.1 °F 23.0 °F 30.04 in WNW 5.0 mph 10.0 mph 43% 0.07 in
11:49 44.0 °F 21.8 °F 30.04 in WNW 6.0 mph 12.0 mph 41% 0.06 in
11:54 44.3 °F 23.7 °F 30.04 in NW 4.0 mph 10.0 mph 44% 0.06 in
11:59 44.1 °F 22.4 °F 30.04 in West 6.0 mph 10.0 mph 42% 0.06 in
12:04 45.1 °F 25.5 °F 30.04 in NW 6.0 mph 11.0 mph 46% 0.06 in
12:09 45.4 °F 24.2 °F 30.03 in NW 5.0 mph 11.0 mph 43% 0.06 in
12:14 45.9 °F 22.9 °F 30.03 in NW 4.0 mph 8.0 mph 40% 0.06 in
12:19 45.8 °F 24.0 °F 30.03 in NW 4.0 mph 8.0 mph 42% 0.06 in
12:24 45.8 °F 23.4 °F 30.03 in NNW 4.0 mph 10.0 mph 41% 0.05 in
12:29 46.2 °F 23.8 °F 30.03 in NW 5.0 mph 10.0 mph 41% 0.05 in
12:34 46.2 °F 20.0 °F 30.03 in West 7.0 mph 10.0 mph 35% 0.04 in
12:39 46.0 °F 22.4 °F 30.03 in NNW 6.0 mph 10.0 mph 39% 0.04 in
12:44 47.8 °F 24.0 °F 30.03 in NNW 3.0 mph 11.0 mph 39% 0.03 in
12:49 46.4 °F 20.2 °F 30.03 in WNW 2.0 mph 10.0 mph 35% 0.03 in
12:54 46.4 °F 18.8 °F 30.03 in WNW 2.0 mph 12.0 mph 33% 0.02 in
12:59 46.8 °F 21.2 °F 30.03 in North 2.0 mph 10.0 mph 36% 0.02 in
13:04 47.2 °F 22.9 °F 30.04 in NW 5.0 mph 10.0 mph 38% 0.01 in
13:09 47.1 °F 22.8 °F 30.04 in NW 5.0 mph 13.0 mph 38% 0.01 in
13:14 46.5 °F 20.9 °F 30.04 in WNW 6.0 mph 13.0 mph 36% 0.00 in
13:24 47.2 °F 23.5 °F 30.04 in NW 4.0 mph 11.0 mph 39% 0.00 in
13:29 48.0 °F 23.6 °F 30.03 in NW 4.0 mph 11.0 mph 38% 0.00 in
13:34 48.5 °F 22.7 °F 30.03 in WNW 5.0 mph 11.0 mph 36% 0.00 in
13:39 48.5 °F 21.4 °F 30.03 in WNW 6.0 mph 13.0 mph 34% 0.00 in
13:44 48.3 °F 29.0 °F 30.03 in West 5.0 mph 12.0 mph 47% 0.00 in
13:49 46.7 °F 28.5 °F 30.03 in West 7.0 mph 15.0 mph 49% 0.00 in
13:54 46.7 °F 30.0 °F 30.03 in South 6.0 mph 14.0 mph 52% 0.00 in
13:59 46.4 °F 29.2 °F 30.03 in West 7.0 mph 13.0 mph 51% 0.00 in
14:04 46.1 °F 28.5 °F 30.03 in SSW 8.0 mph 13.0 mph 50% 0.00 in
14:09 45.7 °F 29.5 °F 30.03 in SW 8.0 mph 14.0 mph 53% 0.00 in
14:14 45.0 °F 30.2 °F 30.03 in SW 8.0 mph 17.0 mph 56% 0.00 in
14:19 45.8 °F 31.4 °F 30.03 in SW 8.0 mph 17.0 mph 57% 0.00 in
14:24 46.3 °F 31.0 °F 30.03 in SSW 6.0 mph 10.0 mph 55% 0.00 in
14:29 45.9 °F 31.5 °F 30.03 in SSE 5.0 mph 14.0 mph 57% 0.00 in
14:34 45.1 °F 29.9 °F 30.03 in South 8.0 mph 16.0 mph 55% 0.00 in
14:39 45.4 °F 28.8 °F 30.03 in WSW 8.0 mph 16.0 mph 52% 0.00 in
14:44 45.0 °F 28.9 °F 30.03 in WSW 8.0 mph 16.0 mph 53% 0.00 in
14:49 45.2 °F 28.6 °F 30.03 in WSW 9.0 mph 16.0 mph 52% 0.00 in
14:54 46.5 °F 30.7 °F 30.03 in SW 3.0 mph 12.0 mph 54% 0.00 in
14:59 46.2 °F 28.6 °F 30.03 in West 6.0 mph 13.0 mph 50% 0.00 in
15:04 45.4 °F 27.8 °F 30.03 in West 9.0 mph 17.0 mph 50% 0.00 in
15:09 45.5 °F 28.4 °F 30.03 in WSW 9.0 mph 17.0 mph 51% 0.00 in
15:14 46.3 °F 29.1 °F 30.04 in WSW 8.0 mph 15.0 mph 51% 0.00 in
15:19 45.6 °F 28.0 °F 30.04 in SW 12.0 mph 15.0 mph 50% 0.00 in
15:24 45.5 °F 27.4 °F 30.04 in WSW 10.0 mph 16.0 mph 49% 0.00 in
15:29 45.6 °F 27.5 °F 30.04 in WSW 11.0 mph 16.0 mph 49% 0.00 in
15:34 45.6 °F 28.0 °F 30.04 in WSW 5.0 mph 15.0 mph 50% 0.00 in
15:39 45.6 °F 28.0 °F 30.04 in WSW 9.0 mph 18.0 mph 50% 0.00 in
15:44 45.6 °F 28.0 °F 30.04 in WSW 10.0 mph 18.0 mph 50% 0.00 in
15:49 45.5 °F 26.4 °F 30.03 in WSW 10.0 mph 16.0 mph 47% 0.00 in
15:54 46.1 °F 28.0 °F 30.03 in SW 7.0 mph 15.0 mph 49% 0.00 in
15:59 46.4 °F 27.8 °F 30.03 in SW 8.0 mph 18.0 mph 48% 0.00 in
16:04 46.2 °F 28.1 °F 30.03 in SW 8.0 mph 18.0 mph 49% 0.00 in
16:09 46.0 °F 27.9 °F 30.03 in SW 9.0 mph 15.0 mph 49% 0.00 in
16:14 45.8 °F 27.2 °F 30.03 in SW 10.0 mph 17.0 mph 48% 0.00 in
16:19 46.1 °F 28.5 °F 30.03 in SSW 9.0 mph 15.0 mph 50% 0.00 in
16:24 46.1 °F 28.0 °F 30.04 in West 9.0 mph 15.0 mph 49% 0.00 in
16:29 46.0 °F 27.4 °F 30.03 in SW 8.0 mph 14.0 mph 48% 0.00 in
16:34 45.8 °F 26.2 °F 30.03 in SW 14.0 mph 16.0 mph 46% 0.00 in
16:39 45.7 °F 26.6 °F 30.03 in West 9.0 mph 15.0 mph 47% 0.00 in
16:44 46.0 °F 26.9 °F 30.03 in SW 10.0 mph 16.0 mph 47% 0.00 in
16:49 46.1 °F 28.5 °F 30.03 in SW 9.0 mph 17.0 mph 50% 0.00 in
16:54 46.3 °F 28.7 °F 30.02 in SW 8.0 mph 17.0 mph 50% 0.00 in
16:59 46.0 °F 28.4 °F 30.02 in SW 8.0 mph 15.0 mph 50% 0.00 in
17:04 45.8 °F 28.2 °F 30.02 in SW 9.0 mph 18.0 mph 50% 0.00 in
17:09 45.4 °F 27.8 °F 30.02 in WSW 9.0 mph 18.0 mph 50% 0.00 in
17:14 45.2 °F 28.6 °F 30.02 in SW 9.0 mph 16.0 mph 52% 0.00 in
17:19 44.9 °F 29.2 °F 30.02 in WSW 4.0 mph 18.0 mph 54% 0.00 in
17:24 44.9 °F 28.3 °F 30.02 in SW 9.0 mph 15.0 mph 52% 0.00 in
17:29 44.9 °F 27.8 °F 30.02 in WSW 5.0 mph 14.0 mph 51% 0.00 in
17:34 45.2 °F 29.1 °F 30.02 in WSW 16.0 mph 16.0 mph 53% 0.00 in
17:39 45.1 °F 28.5 °F 30.02 in SW 12.0 mph 17.0 mph 52% 0.00 in
17:44 45.0 °F 29.3 °F 30.02 in WSW 9.0 mph 17.0 mph 54% 0.00 in
17:49 45.1 °F 29.0 °F 30.02 in WSW 8.0 mph 15.0 mph 53% 0.00 in
17:54 45.4 °F 28.8 °F 30.03 in WSW 6.0 mph 12.0 mph 52% 0.00 in
17:59 45.2 °F 28.6 °F 30.02 in WSW 6.0 mph 13.0 mph 52% 0.00 in
18:04 45.2 °F 29.5 °F 30.02 in WSW 7.0 mph 13.0 mph 54% 0.00 in
18:09 44.8 °F 29.2 °F 30.03 in WSW 8.0 mph 16.0 mph 54% 0.00 in
18:14 44.5 °F 29.3 °F 30.03 in West 6.0 mph 15.0 mph 55% 0.00 in
18:19 44.1 °F 29.4 °F 30.02 in West 5.0 mph 16.0 mph 56% 0.00 in
18:24 44.0 °F 30.6 °F 30.02 in WSW 5.0 mph 9.0 mph 59% 0.00 in
18:29 44.0 °F 30.2 °F 30.02 in SW 6.0 mph 13.0 mph 58% 0.00 in
18:34 43.8 °F 30.8 °F 30.02 in SSW 5.0 mph 8.0 mph 60% 0.00 in
18:39 43.6 °F 30.6 °F 30.02 in SSW 5.0 mph 11.0 mph 60% 0.00 in
18:44 43.4 °F 30.8 °F 30.02 in SSW 7.0 mph 12.0 mph 61% 0.00 in
18:49 43.2 °F 31.1 °F 30.02 in SW 6.0 mph 12.0 mph 62% 0.00 in
18:54 43.0 °F 30.9 °F 30.02 in SW 6.0 mph 12.0 mph 62% 0.00 in
18:59 42.6 °F 30.9 °F 30.02 in SW 8.0 mph 14.0 mph 63% 0.00 in
19:04 42.3 °F 30.6 °F 30.02 in SW 8.0 mph 15.0 mph 63% 0.00 in
19:09 42.1 °F 30.0 °F 30.02 in WSW 7.0 mph 15.0 mph 62% 0.00 in
19:14 42.0 °F 29.9 °F 30.01 in WSW 8.0 mph 12.0 mph 62% 0.00 in
19:19 41.9 °F 30.2 °F 30.02 in SW 7.0 mph 15.0 mph 63% 0.00 in
19:24 41.8 °F 30.1 °F 30.01 in WSW 7.0 mph 13.0 mph 63% 0.00 in
19:29 41.6 °F 30.3 °F 30.01 in West 8.0 mph 12.0 mph 64% 0.00 in
19:34 41.5 °F 30.6 °F 30.01 in WSW 10.0 mph 11.0 mph 65% 0.00 in
19:39 41.3 °F 30.4 °F 30.02 in SW 7.0 mph 11.0 mph 65% 0.00 in
19:54 40.7 °F 30.2 °F 30.02 in SW 5.0 mph 9.0 mph 66% 0.00 in
19:59 40.6 °F 30.1 °F 30.02 in SW 5.0 mph 11.0 mph 66% 0.00 in
20:04 40.5 °F 30.4 °F 30.02 in SW 5.0 mph 11.0 mph 67% 0.00 in
20:09 40.4 °F 30.3 °F 30.02 in SW 6.0 mph 9.0 mph 67% 0.00 in
20:14 40.2 °F 30.1 °F 30.02 in West 3.0 mph 12.0 mph 67% 0.00 in
20:19 40.2 °F 29.7 °F 30.02 in SW 5.0 mph 12.0 mph 66% 0.00 in
20:24 40.1 °F 29.6 °F 30.02 in SW 5.0 mph 10.0 mph 66% 0.00 in
20:29 40.1 °F 29.6 °F 30.02 in SW 4.0 mph 10.0 mph 66% 0.00 in
20:34 40.0 °F 29.9 °F 30.03 in SW 2.0 mph 8.0 mph 67% 0.00 in
20:39 40.0 °F 29.9 °F 30.03 in SW 5.0 mph 10.0 mph 67% 0.00 in
20:44 40.0 °F 29.9 °F 30.03 in SW 3.0 mph 9.0 mph 67% 0.00 in
20:49 40.0 °F 30.3 °F 30.03 in SW 6.0 mph 7.0 mph 68% 0.00 in
20:54 39.9 °F 30.2 °F 30.03 in SW 4.0 mph 9.0 mph 68% 0.00 in
20:59 39.9 °F 30.2 °F 30.03 in SW 4.0 mph 10.0 mph 68% 0.00 in
21:04 39.9 °F 30.2 °F 30.03 in SW 3.0 mph 8.0 mph 68% 0.00 in
21:09 39.9 °F 30.2 °F 30.03 in SW 4.0 mph 8.0 mph 68% 0.00 in
21:14 39.9 °F 30.2 °F 30.04 in SSW 7.0 mph 11.0 mph 68% 0.00 in
21:19 39.9 °F 29.8 °F 30.04 in SW 5.0 mph 11.0 mph 67% 0.00 in
21:24 40.0 °F 29.9 °F 30.04 in SW 6.0 mph 11.0 mph 67% 0.00 in
21:29 40.0 °F 29.9 °F 30.04 in SW 5.0 mph 10.0 mph 67% 0.00 in
21:34 40.0 °F 29.9 °F 30.04 in SW 6.0 mph 11.0 mph 67% 0.00 in
21:44 39.9 °F 30.2 °F 30.04 in SW 5.0 mph 11.0 mph 68% 0.00 in
21:49 39.9 °F 30.2 °F 30.04 in South 5.0 mph 8.0 mph 68% 0.00 in
21:54 39.7 °F 30.0 °F 30.04 in SW 3.0 mph 8.0 mph 68% 0.00 in
21:59 39.6 °F 30.3 °F 30.05 in SSW 3.0 mph 7.0 mph 69% 0.00 in
22:04 39.5 °F 30.5 °F 30.05 in SW 5.0 mph 10.0 mph 70% 0.00 in
22:09 39.5 °F 30.5 °F 30.04 in SSW 2.0 mph 7.0 mph 70% 0.00 in
22:14 39.3 °F 30.7 °F 30.04 in SW 2.0 mph 7.0 mph 71% 0.00 in
22:19 39.2 °F 30.6 °F 30.04 in WSW 6.0 mph 8.0 mph 71% 0.00 in
22:24 39.2 °F 30.9 °F 30.04 in WSW 5.0 mph 9.0 mph 72% 0.00 in
22:29 39.1 °F 30.8 °F 30.05 in SW 4.0 mph 9.0 mph 72% 0.00 in
22:34 39.0 °F 31.1 °F 30.04 in SW 4.0 mph 8.0 mph 73% 0.00 in
22:39 38.9 °F 31.0 °F 30.04 in SW 4.0 mph 10.0 mph 73% 0.00 in
22:44 38.9 °F 31.0 °F 30.04 in SW 4.0 mph 10.0 mph 73% 0.00 in
22:49 38.8 °F 30.9 °F 30.04 in WSW 3.0 mph 8.0 mph 73% 0.00 in
22:54 38.8 °F 30.9 °F 30.04 in SW 4.0 mph 6.0 mph 73% 0.00 in
23:04 38.6 °F 31.0 °F 30.04 in SW 2.0 mph 6.0 mph 74% 0.00 in
23:09 38.4 °F 30.8 °F 30.04 in SW 2.0 mph 7.0 mph 74% 0.00 in
23:14 38.3 °F 31.1 °F 30.04 in SW 2.0 mph 5.0 mph 75% 0.00 in
23:19 38.3 °F 31.1 °F 30.04 in SW 4.0 mph 7.0 mph 75% 0.00 in
23:24 38.1 °F 30.9 °F 30.04 in SSW 3.0 mph 7.0 mph 75% 0.00 in
23:29 38.1 °F 31.2 °F 30.04 in SW 3.0 mph 7.0 mph 76% 0.00 in
23:34 37.9 °F 31.0 °F 30.05 in SW 2.0 mph 6.0 mph 76% 0.00 in
23:39 37.8 °F 30.9 °F 30.04 in SW 3.0 mph 7.0 mph 76% 0.00 in
23:44 37.7 °F 30.8 °F 30.04 in SW 3.0 mph 7.0 mph 76% 0.00 in
23:49 37.7 °F 31.1 °F 30.04 in SW 3.0 mph 7.0 mph 77% 0.00 in
23:54 37.8 °F 31.2 °F 30.04 in WSW 2.0 mph 6.0 mph 77% 0.00 in
23:59 37.7 °F 31.1 °F 30.04 in SSW 3.0 mph 4.0 mph 77% 0.00 in
Buffalo, New York, USA
Compliments of Weather Underground - 2.25 mb